Location: Ostrava
(49.8330°N, 18.2830°E)
Time: 22:51:55
(UTC+01:00)

Explorer 7 - Visible Passes

Search period start: 25 November 2014 00:00
Search period end: 05 December 2014 00:00
Orbit: 491 x 703 km, 50.3° (Epoch: 25 November)

Date Brightness Start Highest point End Pass type
(mag) Time Alt. Az. Time Alt. Az. Time Alt. Az.
25 Nov 6.5 17:20:23 10° WSW 17:24:11 88° S 17:26:08 27° E visible
25 Nov 8.9 19:01:13 10° W 19:02:46 23° W 19:02:46 23° W visible
26 Nov 6.5 17:30:04 10° W 17:33:52 83° N 17:35:24 34° E visible
26 Nov 9.3 19:10:54 10° W 19:12:01 19° W 19:12:01 19° W visible
27 Nov 6.5 17:39:45 10° W 17:43:33 82° N 17:44:39 44° E visible
27 Nov 9.6 19:20:34 10° W 19:21:16 15° W 19:21:16 15° W visible
28 Nov 6.5 17:49:25 10° W 17:53:12 89° N 17:53:56 57° E visible
28 Nov 9.9 19:30:16 10° W 19:30:34 12° W 19:30:34 12° W visible
29 Nov 6.5 17:59:03 10° W 18:02:50 77° SSW 18:03:16 66° SE visible
30 Nov 6.6 16:27:51 10° W 16:31:40 82° N 16:35:28 10° E visible
30 Nov 6.9 18:08:41 10° W 18:12:25 58° SSW 18:12:38 57° S visible
01 Dec 6.6 16:37:29 10° W 16:41:18 87° N 16:45:06 10° E visible
01 Dec 7.6 18:18:21 10° W 18:21:55 41° SSW 18:22:06 40° SSW visible
02 Dec 6.7 16:47:06 10° W 16:50:54 80° SSW 16:54:41 10° ESE visible
02 Dec 8.3 18:28:07 10° W 18:31:22 27° SSW 18:31:40 27° SSW visible
03 Dec 7.0 16:56:42 10° W 17:00:27 61° SSW 17:04:12 10° ESE visible
03 Dec 9.0 18:38:06 10° W 18:40:43 18° SW 18:41:24 17° SSW visible
04 Dec 7.7 17:06:20 10° W 17:09:56 43° SSW 17:13:32 10° SE visible
04 Dec 9.6 18:48:59 10° WSW 18:49:59 11° SW 18:50:58 10° SSW visible
